Year,Month,Day,Hour,Minute,Value (Times are PST for temperature in C)
2019,05,31,00,00,15.60
2019,05,31,00,01,15.60
2019,05,31,00,02,15.50
2019,05,31,00,03,15.50
2019,05,31,00,04,15.50
2019,05,31,00,05,15.40
2019,05,31,00,06,15.40
2019,05,31,00,07,15.40
2019,05,31,00,08,15.30
2019,05,31,00,09,15.30
2019,05,31,00,10,15.30
2019,05,31,00,11,15.30
2019,05,31,00,12,15.20
2019,05,31,00,13,15.20
2019,05,31,00,14,15.20
2019,05,31,00,15,15.20
2019,05,31,00,16,15.20
2019,05,31,00,17,15.20
2019,05,31,00,18,15.10
2019,05,31,00,19,15.10
2019,05,31,00,20,15.10
2019,05,31,00,21,15.10
2019,05,31,00,22,15.10
2019,05,31,00,23,15.00
2019,05,31,00,24,15.00
2019,05,31,00,25,15.00
2019,05,31,00,26,14.90
2019,05,31,00,27,14.90
2019,05,31,00,28,14.90
2019,05,31,00,29,14.80
2019,05,31,00,30,14.80
2019,05,31,00,31,14.80
2019,05,31,00,32,14.80
2019,05,31,00,33,14.80
2019,05,31,00,34,14.70
2019,05,31,00,35,14.70
2019,05,31,00,36,14.70
2019,05,31,00,37,14.70
2019,05,31,00,38,14.70
2019,05,31,00,39,14.60
2019,05,31,00,40,14.60
2019,05,31,00,41,14.60
2019,05,31,00,42,14.60
2019,05,31,00,43,14.60
2019,05,31,00,44,14.60
2019,05,31,00,45,14.60
2019,05,31,00,46,14.60
2019,05,31,00,47,14.60
2019,05,31,00,48,14.60
2019,05,31,00,49,14.60
2019,05,31,00,50,14.60
2019,05,31,00,51,14.60
2019,05,31,00,52,14.50
2019,05,31,00,53,14.50
2019,05,31,00,54,14.50
2019,05,31,00,55,14.50
2019,05,31,00,56,14.50
2019,05,31,00,57,14.50
2019,05,31,00,58,14.50
2019,05,31,00,59,14.50
2019,05,31,01,00,14.50
2019,05,31,01,01,14.50
2019,05,31,01,02,14.50
2019,05,31,01,03,14.50
2019,05,31,01,04,14.40
2019,05,31,01,05,14.40
2019,05,31,01,06,14.40
2019,05,31,01,07,14.40
2019,05,31,01,08,14.30
2019,05,31,01,09,14.30
2019,05,31,01,10,14.30
2019,05,31,01,11,14.30
2019,05,31,01,12,14.30
2019,05,31,01,13,14.20
2019,05,31,01,14,14.20
2019,05,31,01,15,14.20
2019,05,31,01,16,14.20
2019,05,31,01,17,14.20
2019,05,31,01,18,14.10
2019,05,31,01,19,14.10
2019,05,31,01,20,14.10
2019,05,31,01,21,14.00
2019,05,31,01,22,14.00
2019,05,31,01,23,14.00
2019,05,31,01,24,13.90
2019,05,31,01,25,13.90
2019,05,31,01,26,13.90
2019,05,31,01,27,13.80
2019,05,31,01,28,13.80
2019,05,31,01,29,13.80
2019,05,31,01,30,13.80
2019,05,31,01,31,13.70
2019,05,31,01,32,13.70
2019,05,31,01,33,13.70
2019,05,31,01,34,13.70
2019,05,31,01,35,13.70
2019,05,31,01,36,13.60
2019,05,31,01,37,13.60
2019,05,31,01,38,13.60
2019,05,31,01,39,13.60
2019,05,31,01,40,13.50
2019,05,31,01,41,13.50
2019,05,31,01,42,13.50
2019,05,31,01,43,13.40
2019,05,31,01,44,13.40
2019,05,31,01,45,13.40
2019,05,31,01,46,13.40
2019,05,31,01,47,13.30
2019,05,31,01,48,13.30
2019,05,31,01,49,13.30
2019,05,31,01,50,13.30
2019,05,31,01,51,13.20
2019,05,31,01,52,13.20
2019,05,31,01,53,13.20
2019,05,31,01,54,13.10
2019,05,31,01,55,13.10
2019,05,31,01,56,13.10
2019,05,31,01,57,13.10
2019,05,31,01,58,13.10
2019,05,31,01,59,13.00
2019,05,31,02,00,13.00
2019,05,31,02,01,13.00
2019,05,31,02,02,13.00
2019,05,31,02,03,12.90
2019,05,31,02,04,12.90
2019,05,31,02,05,12.90
2019,05,31,02,06,12.90
2019,05,31,02,07,12.90
2019,05,31,02,08,12.80
2019,05,31,02,09,12.80
2019,05,31,02,10,12.80
2019,05,31,02,11,12.80
2019,05,31,02,12,12.80
2019,05,31,02,13,12.80
2019,05,31,02,14,12.80
2019,05,31,02,15,12.70
2019,05,31,02,16,12.70
2019,05,31,02,17,12.70
2019,05,31,02,18,12.70
2019,05,31,02,19,12.70
2019,05,31,02,20,12.60
2019,05,31,02,21,12.60
2019,05,31,02,22,12.60
2019,05,31,02,23,12.60
2019,05,31,02,24,12.60
2019,05,31,02,25,12.50
2019,05,31,02,26,12.50
2019,05,31,02,27,12.50
2019,05,31,02,28,12.50
2019,05,31,02,29,12.50
2019,05,31,02,30,12.40
2019,05,31,02,31,12.40
2019,05,31,02,32,12.40
2019,05,31,02,33,12.40
2019,05,31,02,34,12.40
2019,05,31,02,35,12.40
2019,05,31,02,36,12.40
2019,05,31,02,37,12.40
2019,05,31,02,38,12.40
2019,05,31,02,39,12.40
2019,05,31,02,40,12.40
2019,05,31,02,41,12.40
2019,05,31,02,42,12.30
2019,05,31,02,43,12.30
2019,05,31,02,44,12.30
2019,05,31,02,45,12.30
2019,05,31,02,46,12.30
2019,05,31,02,47,12.30
2019,05,31,02,48,12.30
2019,05,31,02,49,12.30
2019,05,31,02,50,12.30
2019,05,31,02,51,12.30
2019,05,31,02,52,12.30
2019,05,31,02,53,12.30
2019,05,31,02,54,12.30
2019,05,31,02,55,12.20
2019,05,31,02,56,12.20
2019,05,31,02,57,12.20
2019,05,31,02,58,12.20
2019,05,31,02,59,12.20
2019,05,31,03,00,12.20
2019,05,31,03,01,12.20
2019,05,31,03,02,12.20
2019,05,31,03,03,12.20
2019,05,31,03,04,12.20
2019,05,31,03,05,12.20
2019,05,31,03,06,12.20
2019,05,31,03,07,12.20
2019,05,31,03,08,12.20
2019,05,31,03,09,12.20
2019,05,31,03,10,12.20
2019,05,31,03,11,12.20
2019,05,31,03,12,12.20
2019,05,31,03,13,12.20
2019,05,31,03,14,12.20
2019,05,31,03,15,12.20
2019,05,31,03,16,12.20
2019,05,31,03,17,12.20
2019,05,31,03,18,12.10
2019,05,31,03,19,12.10
2019,05,31,03,20,12.10
2019,05,31,03,21,12.10
2019,05,31,03,22,12.10
2019,05,31,03,23,12.10
2019,05,31,03,24,12.10
2019,05,31,03,25,12.00
2019,05,31,03,26,12.00
2019,05,31,03,27,12.00
2019,05,31,03,28,12.00
2019,05,31,03,29,12.00
2019,05,31,03,30,12.00
2019,05,31,03,31,12.00
2019,05,31,03,32,12.00
2019,05,31,03,33,11.90
2019,05,31,03,34,11.90
2019,05,31,03,35,11.90
2019,05,31,03,36,11.90
2019,05,31,03,37,11.90
2019,05,31,03,38,11.90
2019,05,31,03,39,11.90
2019,05,31,03,40,11.90
2019,05,31,03,41,11.80
2019,05,31,03,42,11.90
2019,05,31,03,43,11.80
2019,05,31,03,44,11.80
2019,05,31,03,45,11.80
2019,05,31,03,46,11.80
2019,05,31,03,47,11.80
2019,05,31,03,48,11.80
2019,05,31,03,49,11.70
2019,05,31,03,50,11.70
2019,05,31,03,51,11.70
2019,05,31,03,52,11.70
2019,05,31,03,53,11.70
2019,05,31,03,54,11.70
2019,05,31,03,55,11.70
2019,05,31,03,56,11.70
2019,05,31,03,57,11.60
2019,05,31,03,58,11.60
2019,05,31,03,59,11.60
2019,05,31,04,00,11.60
2019,05,31,04,01,11.60
2019,05,31,04,02,11.60
2019,05,31,04,03,11.60
2019,05,31,04,04,11.50
2019,05,31,04,05,11.50
2019,05,31,04,06,11.60
2019,05,31,04,07,11.60
2019,05,31,04,08,11.60
2019,05,31,04,09,11.60
2019,05,31,04,10,11.60
2019,05,31,04,11,11.50
2019,05,31,04,12,11.50
2019,05,31,04,13,11.50
2019,05,31,04,14,11.50
2019,05,31,04,15,11.50
2019,05,31,04,16,11.50
2019,05,31,04,17,11.50
2019,05,31,04,18,11.50
2019,05,31,04,19,11.50
2019,05,31,04,20,11.50
2019,05,31,04,21,11.50
2019,05,31,04,22,11.50
2019,05,31,04,23,11.50
2019,05,31,04,24,11.50
2019,05,31,04,25,11.50
2019,05,31,04,26,11.50
2019,05,31,04,27,11.50
2019,05,31,04,28,11.50
2019,05,31,04,29,11.50
2019,05,31,04,30,11.50
2019,05,31,04,31,11.50
2019,05,31,04,32,11.50
2019,05,31,04,33,11.50
2019,05,31,04,34,11.50
2019,05,31,04,35,11.50
2019,05,31,04,36,11.60
2019,05,31,04,37,11.60
2019,05,31,04,38,11.60
2019,05,31,04,39,11.60
2019,05,31,04,40,11.60
2019,05,31,04,41,11.60
2019,05,31,04,42,11.60
2019,05,31,04,43,11.60
2019,05,31,04,44,11.60
2019,05,31,04,45,11.60
2019,05,31,04,46,11.60
2019,05,31,04,47,11.50
2019,05,31,04,48,11.50
2019,05,31,04,49,11.50
2019,05,31,04,50,11.50
2019,05,31,04,51,11.50
2019,05,31,04,52,11.50
2019,05,31,04,53,11.50
2019,05,31,04,54,11.50
2019,05,31,04,55,11.40
2019,05,31,04,56,11.40
2019,05,31,04,57,11.40
2019,05,31,04,58,11.40
2019,05,31,04,59,11.40
2019,05,31,05,00,11.40
2019,05,31,05,01,11.40
2019,05,31,05,02,11.40
2019,05,31,05,03,11.40
2019,05,31,05,04,11.40
2019,05,31,05,05,11.40
2019,05,31,05,06,11.40
2019,05,31,05,07,11.40
2019,05,31,05,08,11.40
2019,05,31,05,09,11.40
2019,05,31,05,10,11.40
2019,05,31,05,11,11.40
2019,05,31,05,12,11.40
2019,05,31,05,13,11.40
2019,05,31,05,14,11.40
2019,05,31,05,15,11.40
2019,05,31,05,16,11.40
2019,05,31,05,17,11.40
2019,05,31,05,18,11.40
2019,05,31,05,19,11.40
2019,05,31,05,20,11.40
2019,05,31,05,21,11.40
2019,05,31,05,22,11.30
2019,05,31,05,23,11.30
2019,05,31,05,24,11.30
2019,05,31,05,25,11.30
2019,05,31,05,26,11.30
2019,05,31,05,27,11.30
2019,05,31,05,28,11.30
2019,05,31,05,29,11.30
2019,05,31,05,30,11.30
2019,05,31,05,31,11.30
2019,05,31,05,32,11.30
2019,05,31,05,33,11.30
2019,05,31,05,34,11.30
2019,05,31,05,35,11.30
2019,05,31,05,36,11.30
2019,05,31,05,37,11.30
2019,05,31,05,38,11.30
2019,05,31,05,39,11.30
2019,05,31,05,40,11.30
2019,05,31,05,41,11.30
2019,05,31,05,42,11.30
2019,05,31,05,43,11.30
2019,05,31,05,44,11.30
2019,05,31,05,45,11.30
2019,05,31,05,46,11.30
2019,05,31,05,47,11.30
2019,05,31,05,48,11.30
2019,05,31,05,49,11.30
2019,05,31,05,50,11.30
2019,05,31,05,51,11.30
2019,05,31,05,52,11.30
2019,05,31,05,53,11.30
2019,05,31,05,54,11.30
2019,05,31,05,55,11.30
2019,05,31,05,56,11.30
2019,05,31,05,57,11.30
2019,05,31,05,58,11.30
2019,05,31,05,59,11.30
2019,05,31,06,00,11.30
2019,05,31,06,01,11.30
2019,05,31,06,02,11.30
2019,05,31,06,03,11.30
2019,05,31,06,04,11.30
2019,05,31,06,05,11.40
2019,05,31,06,06,11.40
2019,05,31,06,07,11.40
2019,05,31,06,08,11.40
2019,05,31,06,09,11.40
2019,05,31,06,10,11.40
2019,05,31,06,11,11.50
2019,05,31,06,12,11.50
2019,05,31,06,13,11.50
2019,05,31,06,14,11.60
2019,05,31,06,15,11.60
2019,05,31,06,16,11.60
2019,05,31,06,17,11.70
2019,05,31,06,18,11.70
2019,05,31,06,19,11.80
2019,05,31,06,20,11.80
2019,05,31,06,21,11.80
2019,05,31,06,22,11.90
2019,05,31,06,23,11.90
2019,05,31,06,24,12.00
2019,05,31,06,25,12.00
2019,05,31,06,26,12.10
2019,05,31,06,27,12.10
2019,05,31,06,28,12.20
2019,05,31,06,29,12.20
2019,05,31,06,30,12.30
2019,05,31,06,31,12.30
2019,05,31,06,32,12.30
2019,05,31,06,33,12.40
2019,05,31,06,34,12.40
2019,05,31,06,35,12.50
2019,05,31,06,36,12.60
2019,05,31,06,37,12.60
2019,05,31,06,38,12.70
2019,05,31,06,39,12.70
2019,05,31,06,40,12.80
2019,05,31,06,41,12.80
2019,05,31,06,42,12.80
2019,05,31,06,43,12.90
2019,05,31,06,44,13.00
2019,05,31,06,45,13.00
2019,05,31,06,46,13.10
2019,05,31,06,47,13.20
2019,05,31,06,48,13.30
2019,05,31,06,49,13.40
2019,05,31,06,50,13.50
2019,05,31,06,51,13.60
2019,05,31,06,52,13.60
2019,05,31,06,53,13.70
2019,05,31,06,54,13.70
2019,05,31,06,55,13.70
2019,05,31,06,56,13.80
2019,05,31,06,57,13.90
2019,05,31,06,58,13.90
2019,05,31,06,59,14.00
2019,05,31,07,00,14.10
2019,05,31,07,01,14.10
2019,05,31,07,02,14.20
2019,05,31,07,03,14.20
2019,05,31,07,04,14.30
2019,05,31,07,05,14.30
2019,05,31,07,06,14.30
2019,05,31,07,07,14.40
2019,05,31,07,08,14.50
2019,05,31,07,09,14.60
2019,05,31,07,10,14.70
2019,05,31,07,11,14.80
2019,05,31,07,12,15.00
2019,05,31,07,13,15.10
2019,05,31,07,14,15.10
2019,05,31,07,15,15.20
2019,05,31,07,16,15.30
2019,05,31,07,17,15.40
2019,05,31,07,18,15.50
2019,05,31,07,19,15.50
2019,05,31,07,20,15.60
2019,05,31,07,21,15.60
2019,05,31,07,22,15.70
2019,05,31,07,23,15.70
2019,05,31,07,24,15.80
2019,05,31,07,25,15.80
2019,05,31,07,26,15.90
2019,05,31,07,27,15.90
2019,05,31,07,28,15.90
2019,05,31,07,29,15.90
2019,05,31,07,30,16.00
2019,05,31,07,31,16.00
2019,05,31,07,32,16.10
2019,05,31,07,33,16.10
2019,05,31,07,34,16.20
2019,05,31,07,35,16.20
2019,05,31,07,36,16.30
2019,05,31,07,37,16.30
2019,05,31,07,38,16.30
2019,05,31,07,39,16.30
2019,05,31,07,40,16.40
2019,05,31,07,41,16.50
2019,05,31,07,42,16.50
2019,05,31,07,43,16.60
2019,05,31,07,44,16.60
2019,05,31,07,45,16.70
2019,05,31,07,46,16.80
2019,05,31,07,47,16.90
2019,05,31,07,48,16.90
2019,05,31,07,49,17.00
2019,05,31,07,50,17.00
2019,05,31,07,51,17.00
2019,05,31,07,52,17.10
2019,05,31,07,53,17.10
2019,05,31,07,54,17.10
2019,05,31,07,55,17.10
2019,05,31,07,56,17.20
2019,05,31,07,57,17.20
2019,05,31,07,58,17.30
2019,05,31,07,59,17.30
2019,05,31,08,00,17.40
2019,05,31,08,01,17.40
2019,05,31,08,02,17.40
2019,05,31,08,03,17.40
2019,05,31,08,04,17.40
2019,05,31,08,05,17.40
2019,05,31,08,06,17.50
2019,05,31,08,07,17.50
2019,05,31,08,08,17.60
2019,05,31,08,09,17.60
2019,05,31,08,10,17.70
2019,05,31,08,11,17.70
2019,05,31,08,12,17.70
2019,05,31,08,13,17.80
2019,05,31,08,14,17.80
2019,05,31,08,15,17.90
2019,05,31,08,16,18.00
2019,05,31,08,17,18.00
2019,05,31,08,18,18.10
2019,05,31,08,19,18.10
2019,05,31,08,20,18.20
2019,05,31,08,21,18.20
2019,05,31,08,22,18.30
2019,05,31,08,23,18.30
2019,05,31,08,24,18.30
2019,05,31,08,25,18.30
2019,05,31,08,26,18.30
2019,05,31,08,27,18.40
2019,05,31,08,28,18.40
2019,05,31,08,29,18.40
2019,05,31,08,30,18.40
2019,05,31,08,31,18.40
2019,05,31,08,32,18.40
2019,05,31,08,33,18.40
2019,05,31,08,34,18.40
2019,05,31,08,35,18.40
2019,05,31,08,36,18.30
2019,05,31,08,37,18.30
2019,05,31,08,38,18.30
2019,05,31,08,39,18.30
2019,05,31,08,40,18.30
2019,05,31,08,41,18.40
2019,05,31,08,42,18.40
2019,05,31,08,43,18.40
2019,05,31,08,44,18.40
2019,05,31,08,45,18.40
2019,05,31,08,46,18.40
2019,05,31,08,47,18.40
2019,05,31,08,48,18.50
2019,05,31,08,49,18.50
2019,05,31,08,50,18.50
2019,05,31,08,51,18.60
2019,05,31,08,52,18.60
2019,05,31,08,53,18.60
2019,05,31,08,54,18.50
2019,05,31,08,55,18.50
2019,05,31,08,56,18.50
2019,05,31,08,57,18.50
2019,05,31,08,58,18.60
2019,05,31,08,59,18.50
2019,05,31,09,00,18.50
2019,05,31,09,01,18.50
2019,05,31,09,02,18.50
2019,05,31,09,03,18.40
2019,05,31,09,04,18.40
2019,05,31,09,05,18.30
2019,05,31,09,06,18.30
2019,05,31,09,07,18.30
2019,05,31,09,08,18.30
2019,05,31,09,09,18.30
2019,05,31,09,10,18.30
2019,05,31,09,11,18.40
2019,05,31,09,12,18.40
2019,05,31,09,13,18.50
2019,05,31,09,14,18.60
2019,05,31,09,15,18.70
2019,05,31,09,16,18.70
2019,05,31,09,17,18.70
2019,05,31,09,18,18.70
2019,05,31,09,19,18.80
2019,05,31,09,20,18.80
2019,05,31,09,21,18.90
2019,05,31,09,22,18.90
2019,05,31,09,23,18.90
2019,05,31,09,24,18.90
2019,05,31,09,25,18.90
2019,05,31,09,26,19.00
2019,05,31,09,27,19.00
2019,05,31,09,28,19.00
2019,05,31,09,29,19.00
2019,05,31,09,30,19.10
2019,05,31,09,31,19.10
2019,05,31,09,32,19.20
2019,05,31,09,33,19.20
2019,05,31,09,34,19.30
2019,05,31,09,35,19.30
2019,05,31,09,36,19.20
2019,05,31,09,37,19.10
2019,05,31,09,38,19.00
2019,05,31,09,39,19.00
2019,05,31,09,40,19.10
2019,05,31,09,41,19.10
2019,05,31,09,42,19.20
2019,05,31,09,43,19.30
2019,05,31,09,44,19.30
2019,05,31,09,45,19.30
2019,05,31,09,46,19.30
2019,05,31,09,47,19.30
2019,05,31,09,48,19.50
2019,05,31,09,49,19.60
2019,05,31,09,50,19.70
2019,05,31,09,51,19.70
2019,05,31,09,52,19.80
2019,05,31,09,53,19.90
2019,05,31,09,54,19.90
2019,05,31,09,55,20.00
2019,05,31,09,56,20.00
2019,05,31,09,57,20.00
2019,05,31,09,58,20.00
2019,05,31,09,59,20.00
2019,05,31,10,00,19.90
2019,05,31,10,01,19.90
2019,05,31,10,02,19.90
2019,05,31,10,03,19.90
2019,05,31,10,04,19.80
2019,05,31,10,05,19.80
2019,05,31,10,06,19.80
2019,05,31,10,07,19.80
2019,05,31,10,08,19.80
2019,05,31,10,09,19.90
2019,05,31,10,10,19.90
2019,05,31,10,11,19.80
2019,05,31,10,12,19.80
2019,05,31,10,13,19.70
2019,05,31,10,14,19.70
2019,05,31,10,15,19.60
2019,05,31,10,16,19.60
2019,05,31,10,17,19.70
2019,05,31,10,18,19.70
2019,05,31,10,19,19.70
2019,05,31,10,20,19.70
2019,05,31,10,21,19.80
2019,05,31,10,22,19.80
2019,05,31,10,23,19.90
2019,05,31,10,24,20.00
2019,05,31,10,25,20.10
2019,05,31,10,26,20.30
2019,05,31,10,27,20.40
2019,05,31,10,28,20.50
2019,05,31,10,29,20.60
2019,05,31,10,30,20.60
2019,05,31,10,31,20.70
2019,05,31,10,32,20.80
2019,05,31,10,33,20.90
2019,05,31,10,34,21.00
2019,05,31,10,35,21.10
2019,05,31,10,36,21.10
2019,05,31,10,37,21.10
2019,05,31,10,38,21.00
2019,05,31,10,39,21.00
2019,05,31,10,40,20.90
2019,05,31,10,41,20.90
2019,05,31,10,42,20.80
2019,05,31,10,43,20.70
2019,05,31,10,44,20.60
2019,05,31,10,45,20.60
2019,05,31,10,46,20.50
2019,05,31,10,47,20.50
2019,05,31,10,48,20.40
2019,05,31,10,49,20.30
2019,05,31,10,50,20.30
2019,05,31,10,51,20.20
2019,05,31,10,52,20.20
2019,05,31,10,53,20.20
2019,05,31,10,54,20.30
2019,05,31,10,55,20.30
2019,05,31,10,56,20.30
2019,05,31,10,57,20.30
2019,05,31,10,58,20.30
2019,05,31,10,59,20.40
2019,05,31,11,00,20.40
2019,05,31,11,01,20.40
2019,05,31,11,02,20.40
2019,05,31,11,03,20.40
2019,05,31,11,04,20.50
2019,05,31,11,05,20.50
2019,05,31,11,06,20.50
2019,05,31,11,07,20.50
2019,05,31,11,08,20.50
2019,05,31,11,09,20.60
2019,05,31,11,10,20.60
2019,05,31,11,11,20.60
2019,05,31,11,12,20.70
2019,05,31,11,13,20.70
2019,05,31,11,14,20.70
2019,05,31,11,15,20.50
2019,05,31,11,16,20.40
2019,05,31,11,17,20.40
2019,05,31,11,18,20.30
2019,05,31,11,19,20.30
2019,05,31,11,20,20.20
2019,05,31,11,21,20.20
2019,05,31,11,22,20.20
2019,05,31,11,23,20.20
2019,05,31,11,24,20.20
2019,05,31,11,25,20.20
2019,05,31,11,26,20.20
2019,05,31,11,27,20.20
2019,05,31,11,28,20.20
2019,05,31,11,29,20.20
2019,05,31,11,30,20.20
2019,05,31,11,31,20.20
2019,05,31,11,32,20.40
2019,05,31,11,33,20.60
2019,05,31,11,34,20.80
2019,05,31,11,35,20.90
2019,05,31,11,36,20.90
2019,05,31,11,37,21.00
2019,05,31,11,38,21.10
2019,05,31,11,39,21.20
2019,05,31,11,40,21.20
2019,05,31,11,41,21.20
2019,05,31,11,42,21.20
2019,05,31,11,43,21.20
2019,05,31,11,44,21.20
2019,05,31,11,45,21.10
2019,05,31,11,46,21.10
2019,05,31,11,47,21.10
2019,05,31,11,48,21.10
2019,05,31,11,49,21.20
2019,05,31,11,50,21.30
2019,05,31,11,51,21.30
2019,05,31,11,52,21.30
2019,05,31,11,53,21.40
2019,05,31,11,54,21.40
2019,05,31,11,55,21.40
2019,05,31,11,56,21.40
2019,05,31,11,57,21.40
2019,05,31,11,58,21.30
2019,05,31,11,59,21.30
2019,05,31,12,00,21.30
2019,05,31,12,01,21.20
2019,05,31,12,02,21.20
2019,05,31,12,03,21.20
2019,05,31,12,04,21.20
2019,05,31,12,05,21.10
2019,05,31,12,06,21.00
2019,05,31,12,07,20.90
2019,05,31,12,08,20.90
2019,05,31,12,09,20.80
2019,05,31,12,10,20.80
2019,05,31,12,11,20.90
2019,05,31,12,12,20.80
2019,05,31,12,13,20.80
2019,05,31,12,14,20.70
2019,05,31,12,15,20.70
2019,05,31,12,16,20.70
2019,05,31,12,17,20.70
2019,05,31,12,18,20.60
2019,05,31,12,19,20.50
2019,05,31,12,20,20.50
2019,05,31,12,21,20.50
2019,05,31,12,22,20.60
2019,05,31,12,23,20.70
2019,05,31,12,24,20.80
2019,05,31,12,25,20.90
2019,05,31,12,26,21.10
2019,05,31,12,27,21.20
2019,05,31,12,28,21.30
2019,05,31,12,29,21.40
2019,05,31,12,30,21.50
2019,05,31,12,31,21.50
2019,05,31,12,32,21.60
2019,05,31,12,33,21.60
2019,05,31,12,34,21.70
2019,05,31,12,35,21.80
2019,05,31,12,36,21.90
2019,05,31,12,37,22.00
2019,05,31,12,38,22.10
2019,05,31,12,39,22.10
2019,05,31,12,40,22.00
2019,05,31,12,41,21.90
2019,05,31,12,42,21.80
2019,05,31,12,43,21.80
2019,05,31,12,44,21.70
2019,05,31,12,45,21.70
2019,05,31,12,46,21.80
2019,05,31,12,47,21.80
2019,05,31,12,48,21.80
2019,05,31,12,49,21.80
2019,05,31,12,50,21.60
2019,05,31,12,51,21.50
2019,05,31,12,52,21.30
2019,05,31,12,53,21.30
2019,05,31,12,54,21.20
2019,05,31,12,55,21.20
2019,05,31,12,56,21.20
2019,05,31,12,57,21.30
2019,05,31,12,58,21.20
2019,05,31,12,59,21.20
2019,05,31,13,00,21.10
2019,05,31,13,01,21.00
2019,05,31,13,02,20.90
2019,05,31,13,03,20.80
2019,05,31,13,04,20.80
2019,05,31,13,05,20.80
2019,05,31,13,06,20.80
2019,05,31,13,07,20.80
2019,05,31,13,08,20.90
2019,05,31,13,09,21.00
2019,05,31,13,10,21.10
2019,05,31,13,11,21.30
2019,05,31,13,12,21.30
2019,05,31,13,13,21.30
2019,05,31,13,14,21.30
2019,05,31,13,15,21.30
2019,05,31,13,16,21.20
2019,05,31,13,17,21.20
2019,05,31,13,18,21.20
2019,05,31,13,19,21.30
2019,05,31,13,20,21.30
2019,05,31,13,21,21.40
2019,05,31,13,22,21.50
2019,05,31,13,23,21.50
2019,05,31,13,24,21.60
2019,05,31,13,25,21.50
2019,05,31,13,26,21.50
2019,05,31,13,27,21.50
2019,05,31,13,28,21.60
2019,05,31,13,29,21.50
2019,05,31,13,30,21.50
2019,05,31,13,31,21.50
2019,05,31,13,32,21.60
2019,05,31,13,33,21.70
2019,05,31,13,34,21.70
2019,05,31,13,35,21.70
2019,05,31,13,36,21.70
2019,05,31,13,37,21.70
2019,05,31,13,38,21.70
2019,05,31,13,39,21.80
2019,05,31,13,40,22.00
2019,05,31,13,41,22.10
2019,05,31,13,42,22.30
2019,05,31,13,43,22.40
2019,05,31,13,44,22.40
2019,05,31,13,45,22.40
2019,05,31,13,46,22.50
2019,05,31,13,47,22.50
2019,05,31,13,48,22.40
2019,05,31,13,49,22.30
2019,05,31,13,50,22.20
2019,05,31,13,51,22.20
2019,05,31,13,52,22.20
2019,05,31,13,53,22.10
2019,05,31,13,54,22.10
2019,05,31,13,55,22.10
2019,05,31,13,56,22.00
2019,05,31,13,57,21.90
2019,05,31,13,58,21.90
2019,05,31,13,59,21.90
2019,05,31,14,00,21.90
2019,05,31,14,01,21.90
2019,05,31,14,02,21.80
2019,05,31,14,03,21.80
2019,05,31,14,04,21.80
2019,05,31,14,05,21.80
2019,05,31,14,06,21.80
2019,05,31,14,07,21.90
2019,05,31,14,08,21.90
2019,05,31,14,09,21.90
2019,05,31,14,10,21.90
2019,05,31,14,11,21.80
2019,05,31,14,12,21.80
2019,05,31,14,13,21.80
2019,05,31,14,14,21.70
2019,05,31,14,15,21.80
2019,05,31,14,16,21.90
2019,05,31,14,17,21.90
2019,05,31,14,18,21.90
2019,05,31,14,19,21.90
2019,05,31,14,20,21.90
2019,05,31,14,21,21.90
2019,05,31,14,22,21.90
2019,05,31,14,23,22.00
2019,05,31,14,24,22.00
2019,05,31,14,25,22.10
2019,05,31,14,26,22.20
2019,05,31,14,27,22.20
2019,05,31,14,28,22.30
2019,05,31,14,29,22.40
2019,05,31,14,30,22.40
2019,05,31,14,31,22.40
2019,05,31,14,32,22.50
2019,05,31,14,33,22.50
2019,05,31,14,34,22.50
2019,05,31,14,35,22.60
2019,05,31,14,36,22.70
2019,05,31,14,37,22.70
2019,05,31,14,38,22.70
2019,05,31,14,39,22.80
2019,05,31,14,40,22.80
2019,05,31,14,41,22.80
2019,05,31,14,42,22.80
2019,05,31,14,43,22.70
2019,05,31,14,44,22.60
2019,05,31,14,45,22.50
2019,05,31,14,46,22.30
2019,05,31,14,47,22.30
2019,05,31,14,48,22.20
2019,05,31,14,49,22.20
2019,05,31,14,50,22.10
2019,05,31,14,51,22.10
2019,05,31,14,52,22.10
2019,05,31,14,53,22.00
2019,05,31,14,54,22.00
2019,05,31,14,55,22.00
2019,05,31,14,56,22.00
2019,05,31,14,57,22.00
2019,05,31,14,58,22.00
2019,05,31,14,59,22.10
2019,05,31,15,00,22.10
2019,05,31,15,01,22.00
2019,05,31,15,02,22.00
2019,05,31,15,03,21.90
2019,05,31,15,04,21.90
2019,05,31,15,05,21.90
2019,05,31,15,06,21.90
2019,05,31,15,07,21.90
2019,05,31,15,08,22.00
2019,05,31,15,09,22.00
2019,05,31,15,10,22.00
2019,05,31,15,11,22.10
2019,05,31,15,12,22.20
2019,05,31,15,13,22.30
2019,05,31,15,14,22.50
2019,05,31,15,15,22.70
2019,05,31,15,16,22.80
2019,05,31,15,17,22.80
2019,05,31,15,18,22.80
2019,05,31,15,19,22.90
2019,05,31,15,20,23.00
2019,05,31,15,21,23.10
2019,05,31,15,22,23.10
2019,05,31,15,23,23.10
2019,05,31,15,24,23.10
2019,05,31,15,25,23.20
2019,05,31,15,26,23.20
2019,05,31,15,27,23.20
2019,05,31,15,28,23.30
2019,05,31,15,29,23.30
2019,05,31,15,30,23.40
2019,05,31,15,31,23.40
2019,05,31,15,32,23.40
2019,05,31,15,33,23.40
2019,05,31,15,34,23.40
2019,05,31,15,35,23.40
2019,05,31,15,36,23.40
2019,05,31,15,37,23.40
2019,05,31,15,38,23.40
2019,05,31,15,39,23.40
2019,05,31,15,40,23.40
2019,05,31,15,41,23.40
2019,05,31,15,42,23.40
2019,05,31,15,43,23.40
2019,05,31,15,44,23.40
2019,05,31,15,45,23.40
2019,05,31,15,46,23.40
2019,05,31,15,47,23.50
2019,05,31,15,48,23.60
2019,05,31,15,49,23.60
2019,05,31,15,50,23.70
2019,05,31,15,51,23.70
2019,05,31,15,52,23.70
2019,05,31,15,53,23.80
2019,05,31,15,54,23.80
2019,05,31,15,55,23.90
2019,05,31,15,56,23.90
2019,05,31,15,57,23.90
2019,05,31,15,58,23.90
2019,05,31,15,59,23.90
2019,05,31,16,00,24.00
2019,05,31,16,01,24.00
2019,05,31,16,02,24.10
2019,05,31,16,03,24.20
2019,05,31,16,04,24.20
2019,05,31,16,05,24.20
2019,05,31,16,06,24.20
2019,05,31,16,07,24.20
2019,05,31,16,08,24.10
2019,05,31,16,09,24.10
2019,05,31,16,10,24.10
2019,05,31,16,11,24.10
2019,05,31,16,12,24.10
2019,05,31,16,13,24.00
2019,05,31,16,14,23.90
2019,05,31,16,15,23.90
2019,05,31,16,16,23.80
2019,05,31,16,17,23.80
2019,05,31,16,18,23.70
2019,05,31,16,19,23.70
2019,05,31,16,20,23.70
2019,05,31,16,21,23.70
2019,05,31,16,22,23.70
2019,05,31,16,23,23.70
2019,05,31,16,24,23.70
2019,05,31,16,25,23.80
2019,05,31,16,26,23.80
2019,05,31,16,27,23.90
2019,05,31,16,28,23.90
2019,05,31,16,29,23.90
2019,05,31,16,30,23.90
2019,05,31,16,31,23.90
2019,05,31,16,32,23.90
2019,05,31,16,33,23.90
2019,05,31,16,34,23.90
2019,05,31,16,35,23.90
2019,05,31,16,36,24.00
2019,05,31,16,37,24.00
2019,05,31,16,38,24.00
2019,05,31,16,39,24.00
2019,05,31,16,40,24.00
2019,05,31,16,41,24.00
2019,05,31,16,42,24.00
2019,05,31,16,43,24.10
2019,05,31,16,44,24.10
2019,05,31,16,45,24.10
2019,05,31,16,46,24.20
2019,05,31,16,47,24.20
2019,05,31,16,48,24.30
2019,05,31,16,49,24.40
2019,05,31,16,50,24.40
2019,05,31,16,51,24.50
2019,05,31,16,52,24.60
2019,05,31,16,53,24.60
2019,05,31,16,54,24.60
2019,05,31,16,55,24.60
2019,05,31,16,56,24.60
2019,05,31,16,57,24.50
2019,05,31,16,58,24.50
2019,05,31,16,59,24.40
2019,05,31,17,00,24.40
2019,05,31,17,01,24.40
2019,05,31,17,02,24.30
2019,05,31,17,03,24.30
2019,05,31,17,04,24.30
2019,05,31,17,05,24.30
2019,05,31,17,06,24.30
2019,05,31,17,07,24.30
2019,05,31,17,08,24.30
2019,05,31,17,09,24.30
2019,05,31,17,10,24.30
2019,05,31,17,11,24.30
2019,05,31,17,12,24.30
2019,05,31,17,13,24.30
2019,05,31,17,14,24.30
2019,05,31,17,15,24.40
2019,05,31,17,16,24.40
2019,05,31,17,17,24.50
2019,05,31,17,18,24.50
2019,05,31,17,19,24.60